Printer-friendly version
Follow the MPC on Twitter Follow the MPC on Facebook The MPC blog
Minor Planet Center

MPEC 2007-Q30 : 2003 QZ29

The following Minor Planet Electronic Circular may be linked-to from your own Web pages, but must not otherwise be redistributed electronically.

A form allowing access to any MPEC is at the bottom of this page.


Read MPEC 2007-Q29 Read MPEC 2007-Q31


M.P.E.C. 2007-Q30                                Issued 2007 Aug. 27, 16:22 UT

     The Minor Planet Electronic Circulars contain information on unusual
         minor planets and routine data on comets.  They are published
   on behalf of Commission 20 of the International Astronomical Union by the
          Minor Planet Center, Smithsonian Astrophysical Observatory,
                          Cambridge, MA 02138, U.S.A.

             Prepared using the Tamkin Foundation Computer Network

                              MPC@CFA.HARVARD.EDU
          URL http://www.cfa.harvard.edu/iau/mpc.html  ISSN 1523-6714

                                   2003 QZ29

                           Revision to MPEC 2003-Q27

Additional Observations:
     K03Q29Z 5C2007 08 25.45458 03 44 33.97 +14 26 59.8          20.0 R EQ030673
     K03Q29Z 5C2007 08 25.46100 03 44 36.32 +14 27 00.8                 EQ030673
     K03Q29Z 5C2007 08 25.46481 03 44 37.81 +14 27 01.3                 EQ030673
     K03Q29Z 5C2007 08 25.47605 03 44 41.94 +14 27 02.4                 EQ030673
     K03Q29Z 5C2007 08 27.45150 03 57 09.90 +14 29 10.2          20.0 R EQ030673
     K03Q29Z 5C2007 08 27.46400 03 57 14.72 +14 29 10.3                 EQ030673
     K03Q29Z 5C2007 08 27.47755 03 57 19.81 +14 29 10.4                 EQ030673
     K03Q29Z 5C2007 08 27.48947 03 57 24.37 +14 29 10.6                 EQ030673

Observer details:
673 Table Mountain Observatory, Wrightwood.  Observer J. Young.  0.61-m f/16
    Cassegrain + CCD.

First and last observations above in comparison with prediction:
Residuals in seconds of arc (or two decimals in degrees), reference and Delta-T
070825 673 0.17- 0.02-    070827 673 0.17- 0.02-    MPO 62446   +0.11 day

Orbital elements:
2003 QZ29                                                Earth MOID = 0.1095 AU
Epoch 2007 Oct. 27.0 TT = JDT 2454400.5                 MPC
M   3.34141              (2000.0)            P               Q
n   0.25232359     Peri.  251.12695     +0.58482865     -0.80992565
a   2.4802615      Node   162.85427     +0.78954033     +0.55574943
e   0.6022101      Incl.    8.71636     +0.18601484     +0.18751802
P   3.91           H   19.1           G   0.15           U   0
Residuals in seconds of arc
030824 704  0.2+  0.5+    030902 704  0.1+  0.5+    030927 E14  0.2+  1.0-
030824 704  0.1+  0.9+    030902 704  0.8-  0.3+    030927 E14  0.1+  0.4-
030824 704  0.2-  0.3+    030902 704  0.0   0.8+    030929 E14  0.1+  0.7-
030824 704  0.1+  0.9+    030902 704  0.0   0.6+    030929 E14  0.0   0.1-
030824 704  0.2+  0.6-    030902 704  0.1-  0.3+    030929 E14  0.0   0.4+
030824 246  0.1-  0.5+    030903 215  0.3-  0.4+    031001 730 (1.7+  3.4-)
030824 246  0.1+  0.7+    030903 118  0.2+  0.2+    031001 730 (1.2+  5.3-)
030824 246  0.0   0.8+    030903 118  0.6+  0.3+    031001 730 (1.0+  4.9-)
030824 246  0.2-  0.9+    030903 118  0.2-  0.3+    031008 322  1.1-  1.0+
030824 246  0.2-  0.4+    030903 118  0.1+  0.4+    031008 322 (0.8+  2.2-)
030824 246  0.1-  0.5+    030905 413  0.0   0.3-    031008 322  0.6-  1.1+
030824 198  0.3-  0.3+    030905 413  0.0   0.2-    031008 322  0.1-  0.3-
030824 J87  0.9-  0.4-    030905 413  0.1+  0.2-    031010 E14  0.1+  0.5-
030824 J87  0.5-  0.2-    030907 859  1.1+  0.1+    031010 E14  0.1+  0.2-
030824 198  0.4-  0.0     030907 859 (2.4-  1.6+)   031010 E14  0.3+  0.4-
030824 J87  0.1-  0.1-    030907 859 (1.1-  2.3+)   031015 428  0.0   0.1-
030824 J87  0.1+  0.3-    030907 413  0.1+  0.3-    031015 428  0.2+  0.3-
030824 198  0.6-  0.4+    030907 413  0.1+  0.5-    031015 428  0.3+  0.5-
030825 118  0.2+  0.3+    030907 413  0.0   0.3-    031022 E14  0.0   0.1-
030825 118  0.0   0.6+    030908 E14  0.2-  0.4-    031022 E14  0.3-  0.2+
030825 118  1.0-  0.1+    030908 E14  0.1+  0.5-    031022 E14  0.2-  0.1+
030825 704  0.2+  0.8+    030908 E14  0.1-  0.1-    031023 E12  0.3-  0.1-
030825 704  0.0   0.8+    030913 163  0.5+  0.9+    031023 E12  0.4-  0.1-
030825 704  0.4+  0.4+    030913 163  1.2+  1.0+    031023 E12  0.3-  0.0
030825 704  0.0   0.7+    030913 163  0.7+  0.4+    031029 428  0.7+  0.3-
030825 704 (2.2-  0.1-)   030913 163  0.8+  1.1+    031029 428  0.5-  0.0
030825 704  0.4+  0.5+    030913 163  0.9+  0.0     031029 428  1.0-  0.2-
030825 704  1.0-  0.2+    030913 176  0.1+  0.3-    031109 859  0.6-  0.5+
030825 704  1.9-  1.2+    030913 176  0.1+  0.2-    031225 A50  0.6+  1.4+
030825 704  0.4+  0.1+    030913 176  0.1+  0.3-    031225 A50  1.6+  0.7-
030825 704  0.3-  0.1+    030913 176  0.1+  0.3-    031225 A50 (2.3+  2.5-)
030825 704  0.6+  0.9+    030914 608  0.5-  0.4+    040101 E14  0.5-  1.1+
030825 704  0.1+  0.1+    030914 608  0.5-  0.5+    040101 E14  0.1+  0.4-
030825 704  0.0   0.8+    030914 608  0.5-  0.3+    040101 E14  0.3-  0.0
030825 704  0.8+  0.7+    030914 108 (0.7-  2.2-)   040103 704  0.4+  0.1+
030826 246  0.5+  0.2+    030914 108  0.1-  1.6+    040103 704  0.0   0.1-
030826 246  0.0   0.1-    030914 108  1.0+  1.0-    040103 704  0.1+  0.1-
030826 246  0.6+  0.0     030914 108  1.8-  0.4+    040103 704  0.1+  0.5+
030826 246  0.2+  0.0     030916 246  0.0   0.3+    040103 704  1.6+  0.4-
030826 246  0.6+  0.2+    030916 246  0.1-  0.1-    040115 644  0.1-  0.3+
030826 246  0.3-  0.1-    030916 246  0.3-  0.2+    040115 644  0.0   0.2+
030827 670  0.2+  0.1+    030916 246  0.5-  0.1+    040115 644  0.2-  0.1-
030827 670  0.6-  0.4+    030916 246  0.3-  0.3+    040123 699  0.2-  0.2+
030827 670  0.3+  0.6+    030917 699  0.2+  0.0     040123 699  0.1-  0.2+
030827 198  0.4+  0.2-    030917 699  0.5-  0.0     040123 699  0.3-  0.3+
030827 198  0.1+  0.4+    030917 699  0.2+  0.1-    040123 699  0.2-  0.5+
030827 198  0.1-  1.1+    030917 704  0.1+  0.1-    040128 442  1.2-  0.6-
030827 176  0.1-  0.0     030917 699  0.1+  0.1-    040128 442  1.2-  0.3+
030827 176  0.0   0.0     030917 704  0.1+  0.0     040128 442  0.9-  0.3-
030827 176  0.0   0.1-    030917 704  0.0   0.0     040129 704  0.2+  0.6+
030827 176  0.1+  0.0     030917 704  0.2+  0.2+    040129 704  0.2+  0.5+
030828 704  0.8-  1.6+    030917 704  0.0   0.2-    040129 704  0.3-  0.4+
030828 704  1.1-  0.3-    030917 084  0.2-  0.1-    040129 704  0.3+  0.5+
030828 704  0.3-  0.5+    030918 670  0.1+  0.1-    040129 704  0.1+  0.4+
030828 704  0.8+  0.6-    030918 670  0.6-  0.2-    040130 204  0.9-  0.4+
030828 704  1.0-  0.8-    030920 422  0.2+  0.3-    040131 683  0.3+  0.3-
030829 704  0.5+  0.1+    030920 422  0.0   0.3-    040131 683  0.6-  1.4-
030829 704  0.4-  0.2-    030920 422  0.3+  0.2-    040131 683  1.4+  0.7+
030829 704  0.2-  0.5+    030920 422  0.3+  0.4-    040201 608  0.4+  0.7+
030829 704  0.8-  1.3+    030924 118  0.2+  0.3-    040201 608  1.0+  0.5+
030829 704  1.2+  1.3-    030924 118  0.9+  0.5-    040201 608  0.0   0.5+
030829 704  0.4-  0.5+    030924 118  0.2+  0.0     040223 704  1.3+  0.5+
030829 704  0.1-  0.6-    030924 118  0.1+  0.4+    040223 704  0.1+  0.9+
030829 704  0.5-  0.3+    030925 644  0.1-  0.7-    040223 704  0.2-  0.6-
030830 670  0.0   0.1+    030925 644  0.1+  0.3-    040223 704  0.4-  0.5+
030830 670  0.2+  0.6-    030925 644  0.1-  0.5-    070825 673  0.3-  0.1+
030830 170  0.6-  0.5-    030926 300  0.0   1.7+    070825 673  0.6-  0.3+
030830 170  0.5-  0.4-    030926 300 (1.3+  2.0+)   070825 673  0.5+  0.4+
030830 170  0.3-  0.3-    030926 300  0.8+  1.4-    070825 673  0.2+  0.1+
030831 941  0.3+  0.1-    030926 300  1.7+  0.7+    070827 673  1.2-  0.5+
030831 941  0.2+  0.2-    030927 699  0.0   0.6-    070827 673  0.3+  0.2+
030831 941  0.2+  0.0     030927 699  0.2-  0.1+    070827 673  0.0   0.1-
030831 941  0.1+  0.1+    030927 699  0.1-  0.1-    070827 673  0.9+  0.3-
030831 941  0.0   0.3+    030927 699  0.3-  0.4-
030831 941  0.0   0.4+    030927 E14  0.3+  1.2-

Ephemeris:
2003 QZ29                a,e,i = 2.48, 0.60, 9                   q = 0.9866
Date    TT    R. A. (2000) Decl.     Delta      r     Elong.  Phase     V
2007 08 28    04 00.65   +14 29.3    0.519    1.161    93.2    60.3    20.2
2007 09 07    05 06.41   +13 48.5    0.494    1.100    87.1    66.2    20.1
2007 09 17    06 11.32   +11 54.8    0.496    1.049    81.0    71.2    20.2
2007 09 27    07 10.14   +09 17.8    0.521    1.012    76.0    74.0    20.3
2007 10 07    08 00.90   +06 29.9    0.561    0.991    72.8    74.5    20.4
2007 10 17    08 44.01   +03 50.6    0.608    0.988    71.3    73.0    20.5

Sonia Keys                   (C) Copyright 2007 MPC           M.P.E.C. 2007-Q30

Read MPEC 2007-Q29 Read MPEC 2007-Q31


MPEC number:

Enter an MPEC number in one of the following forms:

  • 1997-B01 (the full form)
  • J97B01 (the packed version of the full form)
  • B01 (the abbreviated form)

Valid HTML 4.01!